Stations météo

réclame
Mon MeteoGroup
Strasbourg, France (7190): Température de l'air & dewpoint: 22.02.2020 18:00:00 - 28.02.2020 18:00:00 (CET)Strasbourg, France (7190): Température de l'air 5cm: 22.02.2020 18:00:00 - 28.02.2020 18:00:00 (CET)Strasbourg, France (7190): Température de l'air -20cm & Température de l'air -100cm: 22.02.2020 18:00:00 - 28.02.2020 18:00:00 (CET)Strasbourg, France (7190): Vitesse du vent & gusts: 22.02.2020 18:00:00 - 28.02.2020 18:00:00 (CET)Strasbourg, France (7190): Direction du vent: 22.02.2020 18:00:00 - 28.02.2020 18:00:00 (CET)Strasbourg, France (7190): reduced air pressure: 22.02.2020 18:00:00 - 28.02.2020 18:00:00 (CET)Strasbourg, France (7190): visibility: 22.02.2020 18:00:00 - 28.02.2020 18:00:00 (CET)Strasbourg, France (7190): Ensoleillement: 22.02.2020 18:00:00 - 28.02.2020 18:00:00 (CET)Strasbourg, France (7190): Quantités de précipitations: 22.02.2020 18:00:00 - 28.02.2020 18:00:00 (CET)
Date & Time tt [°C] td [°C] tt 5cm [°C] tt -20cm [°C] tt -100cm [°C] ff [km/h] ff [knt] fx [km/h] fx [knt] dd ppp [hPa] vv [km] sd [min] rr [mm]
28.02.2020 18:00:00 8,2 -1,4 7,4 6,5 8,1 12 6 23 12 S 1016,3 57 0 0,0
28.02.2020 17:00:00 8,8 -1,6 9,1 6,2 8,1 16 9 34 18 S 1017,1 58 23 0,0
28.02.2020 16:00:00 9,4 -1,4 11,4 5,8 8,1 17 9 30 16 S 1017,8 25 58 0,0
28.02.2020 15:00:00 9,4 0,5 13,8 5,5 8,1 19 11 34 18 S 1018,7 40 60 0,0
28.02.2020 14:00:00 9,1 1,5 10,0 5,1 8,1 18 10 32 17 S 1019,7 20 52 0,0
28.02.2020 13:00:00 8,6 0,1 9,5 4,9 8,2 17 9 36 19 SSW 1021,1 29 48 0,0
28.02.2020 12:00:00 7,9 0,4 9,2 4,8 8,2 20 11 34 18 S 1021,9 30 51 0,0
28.02.2020 11:00:00 6,9 0,6 10,4 4,7 8,2 20 11 32 18 S 1022,1 37 60 0,0
28.02.2020 10:00:00 6,4 0,7 8,5 4,8 8,2 15 8 24 13 SSW 1022,5 33 60 0,0
28.02.2020 09:00:00 4,6 0,9 5,2 4,8 8,2 13 7 20 11 SW 1022,6 23 60 0,0
28.02.2020 08:00:00 2,4 -0,5 0,4 4,9 8,2 12 6 20 11 WSW 1022,2 28 16 0,0
28.02.2020 07:00:00 1,6 -0,3 0,6 5,0 8,2 9 5 18 10 S 1021,7 33 0 0,0
28.02.2020 06:00:00 1,9 -0,2 1,1 5,1 8,2 13 7 17 9 SW 1020,8 38 0 0,0
28.02.2020 05:00:00 2,6 -0,7 1,2 5,1 8,2 12 7 18 10 SW 1020,2 30 0 0,0
28.02.2020 04:00:00 3,0 -0,8 1,7 5,2 8,2 13 7 30 16 W 1018,9 43 0 0,0
28.02.2020 03:00:00 4,1 -0,9 3,6 5,2 8,2 16 8 38 21 W 1018,2 52 0 0,0
28.02.2020 02:00:00 4,2 -0,6 3,4 5,3 8,2 16 9 36 19 W 1017,3 58 0 0,0
28.02.2020 01:00:00 4,1 -0,7 3,3 5,4 8,2 21 11 59 32 W 1015,4 60 0 0,0
28.02.2020 00:00:00 4,0 0,0 3,3 5,4 8,2 31 17 56 31 W 1013,4 60 0 0,0
27.02.2020 23:00:00 4,5 0,3 3,9 5,5 8,3 37 20 71 38 WNW 1011,0 50 0 0,0
27.02.2020 22:00:00 4,5 0,1 3,7 5,5 8,2 39 21 71 39 WNW 1009,0 60 0 0,0
27.02.2020 21:00:00 4,6 0,0 4,1 5,5 8,2 39 21 85 46 W 1006,0 60 0 0,0
27.02.2020 20:00:00 5,1 0,1 4,4 5,5 8,3 53 28 109 59 W 1002,8 60 0 0,0
27.02.2020 19:00:00 5,2 0,6 4,2 5,4 8,2 52 28 98 53 W 998,0 49 0 0,0
27.02.2020 18:00:00 7,2 4,0 5,5 5,4 8,3 51 28 87 47 W 993,2 13 0 0,6
27.02.2020 17:00:00 7,1 4,7 4,3 5,5 8,3 34 19 52 28 S 989,9 45 0 0,0
27.02.2020 16:00:00 4,3 3,7 2,0 5,5 8,3 29 16 46 25 S 991,9 15 0 1,1
27.02.2020 15:00:00 1,7 1,6 0,4 5,6 8,3 15 8 26 14 S 994,0 3,2 0 2,2
27.02.2020 14:00:00 1,0 0,7 0,5 5,6 8,3 11 6 34 18 SSE 996,6 3,0 0 1,4
27.02.2020 13:00:00 1,8 1,1 0,9 5,6 8,3 21 11 49 26 S 999,2 3,6 0 1,4
27.02.2020 12:00:00 4,1 0,6 2,9 5,6 8,2 24 13 44 24 S 1001,9 14 0 0,0
27.02.2020 11:00:00 4,6 0,7 4,5 5,6 8,3 18 10 31 17 S 1004,2 45 0 0,0
27.02.2020 10:00:00 3,9 1,3 4,0 5,6 8,3 22 12 36 19 S 1006,2 44 0 0,0
27.02.2020 09:00:00 3,4 1,3 2,1 5,7 8,3 16 9 27 14 S 1007,9 39 0 0,0
27.02.2020 08:00:00 2,2 1,0 1,3 5,8 8,3 14 8 27 15 S 1009,3 35 0 0,0
27.02.2020 07:00:00 2,0 0,8 1,3 5,9 8,2 15 8 26 14 S 1010,2 44 0 0,0
27.02.2020 06:00:00 2,6 0,8 1,2 5,9 8,3 14 8 26 14 S 1010,8 36 0 0,0
27.02.2020 05:00:00 2,7 1,2 1,7 6,0 8,2 14 8 23 12 SSW 1011,5 43 0 0,2
27.02.2020 04:00:00 3,0 1,4 2,4 6,1 8,3 14 7 32 18 S 1011,8 19 0 0,0
27.02.2020 03:00:00 2,7 1,1 2,2 6,2 8,2 15 8 29 15 SSW 1012,3 40 0 0,0
27.02.2020 02:00:00 2,9 1,1 1,3 6,3 8,2 16 9 27 15 S 1012,5 47 0 0,0
27.02.2020 01:00:00 1,8 0,8 0,4 6,4 8,2 16 8 24 13 S 1012,3 41 0 0,0
27.02.2020 00:00:00 1,6 0,7 0,6 6,6 8,3 12 6 24 13 SSW 1012,3 49 0 0,0
26.02.2020 23:00:00 2,1 0,8 1,0 6,7 8,2 15 8 28 15 SSW 1012,2 56 0 0,2
26.02.2020 22:00:00 2,8 0,2 0,7 6,9 8,3 11 6 24 13 SSW 1011,9 60 0 0,0
26.02.2020 21:00:00 1,7 0,2 0,1 7,0 8,2 10 5 18 10 S 1011,4 46 0 0,0
26.02.2020 20:00:00 2,6 -0,2 0,8 7,0 8,2 11 6 31 17 SW 1010,9 60 0 0,0
26.02.2020 19:00:00 2,1 0,5 0,5 7,1 8,2 18 10 41 22 SW 1010,2 60 0 0,2
26.02.2020 18:00:00 1,8 1,1 1,0 7,1 8,2 13 7 45 24 WSW 1009,4 4,2 5 2,0
26.02.2020 17:00:00 6,0 0,5 4,0 7,0 8,2 21 11 48 26 WSW 1007,8 40 48 0,0
26.02.2020 16:00:00 6,4 0,3 6,0 6,9 8,2 25 14 47 26 W 1006,9 35 44 0,0
26.02.2020 15:00:00 4,5 1,2 3,3 6,8 8,2 22 12 66 36 W 1006,3 45 13 0,4
26.02.2020 14:00:00 5,9 -0,6 6,3 6,8 8,2 19 10 35 19 WSW 1005,5 52 0 0,0
26.02.2020 13:00:00 5,7 -0,8 6,1 6,7 8,2 15 8 46 25 WSW 1005,2 54 8 0,0
26.02.2020 12:00:00 5,5 -0,1 2,5 6,8 8,2 30 16 44 24 W 1004,7 46 10 0,0
26.02.2020 11:00:00 3,5 1,4 1,9 6,8 8,2 19 11 34 18 W 1004,2 55 0 0,2
26.02.2020 10:00:00 2,9 1,1 2,3 6,9 8,2 29 15 55 30 WSW 1003,2 27 5 0,2
26.02.2020 09:00:00 3,3 1,3 2,6 7,0 8,2 24 13 38 20 WSW 1002,4 11 0 0,0
26.02.2020 08:00:00 3,1 0,3 2,5 7,2 8,2 13 7 36 19 S 1001,8 60 0 0,0
26.02.2020 07:00:00 4,1 -1,3 3,3 7,3 8,2 21 11 49 27 WSW 1001,6 58 0 0,0
26.02.2020 06:00:00 4,1 -0,5 1,9 7,5 8,2 30 16 50 27 WSW 1001,9 58 0 0,0
26.02.2020 05:00:00 3,0 0,9 2,0 7,7 8,1 18 10 56 31 SW 1002,3 51 0 0,0
26.02.2020 04:00:00 4,1 0,1 3,0 7,8 8,1 26 14 54 29 WSW 1002,3 60 0 0,0
26.02.2020 03:00:00 4,2 0,3 2,5 7,9 8,1 29 16 55 30 W 1002,0 60 0 0,0
26.02.2020 02:00:00 3,7 1,6 2,6 8,1 8,1 23 12 96 52 WSW 1002,1 44 0 2,4
26.02.2020 01:00:00 5,3 3,1 3,9 8,2 8,1 18 10 41 22 SW 1000,5 56 0 1,2
26.02.2020 00:00:00 5,4 2,7 3,3 8,4 8,1 16 9 35 19 SSW 1001,2 35 0 0,2
25.02.2020 23:00:00 5,7 2,9 4,1 8,5 8,1 34 19 63 34 WSW 1002,1 10 0 0,4
25.02.2020 22:00:00 7,1 3,3 5,4 8,6 8,1 21 11 40 22 SW 1002,0 7 0 0,0
25.02.2020 21:00:00 7,0 2,7 5,6 8,7 8,1 25 13 46 25 SW 1002,8 60 0 0,0
25.02.2020 20:00:00 6,5 2,8 5,2 8,8 8,1 19 10 38 20 SSW 1003,5 60 0 0,0
25.02.2020 19:00:00 6,9 4,0 5,7 8,8 8,0 15 8 31 17 SSW 1003,9 60 0 0,0
25.02.2020 18:00:00 8,1 4,3 7,5 8,8 8,0 23 13 53 29 SW 1003,9 57 18 0,2
25.02.2020 17:00:00 8,8 6,6 7,9 8,8 8,1 23 12 46 25 W 1003,9 16 7 1,6
25.02.2020 16:00:00 9,1 7,7 8,3 8,7 8,0 16 9 42 23 W 1004,4 4,3 0 2,0
25.02.2020 15:00:00 10,1 7,2 9,1 8,7 8,0 25 14 41 22 SSW 1004,3 52 0 0,0
25.02.2020 14:00:00 10,8 7,3 9,7 8,6 8,0 26 14 39 21 SSW 1005,1 49 2 0,0
25.02.2020 13:00:00 9,3 6,7 8,6 8,6 8,0 21 11 38 21 S 1006,3 50 0 0,0
25.02.2020 12:00:00 9,0 6,3 8,4 8,6 8,0 25 13 45 24 S 1006,8 49 0 0,2
25.02.2020 11:00:00 8,6 6,9 7,9 8,7 8,0 20 11 39 21 S 1007,5 29 0 0,2
25.02.2020 10:00:00 8,7 6,5 7,4 8,7 8,0 23 13 35 19 SSW 1007,9 36 0 0,2
25.02.2020 09:00:00 8,4 6,5 7,0 8,8 8,0 17 9 36 20 S 1008,5 18 0 0,8
25.02.2020 08:00:00 8,1 6,2 6,9 8,9 8,0 23 12 41 22 SSW 1008,8 12 0 0,2
25.02.2020 07:00:00 8,4 5,5 7,4 8,9 7,9 29 16 41 22 SW 1008,9 20 0 0,0
25.02.2020 06:00:00 8,9 4,9 7,1 9,1 7,9 23 12 34 18 WSW 1009,1 60 0 0,0
25.02.2020 05:00:00 8,2 4,8 6,8 9,2 7,9 10 5 17 9 S 1009,7 58 0 0,0
25.02.2020 04:00:00 8,2 4,8 6,9 9,3 7,9 8 4 39 21 SSW 1010,0 59 0 0,0
25.02.2020 03:00:00 9,8 5,0 9,2 9,4 7,9 34 18 50 27 WSW 1010,4 60 0 0,0
25.02.2020 02:00:00 10,3 4,2 9,7 9,5 7,9 32 17 56 30 WSW 1010,9 48 0 0,0
25.02.2020 01:00:00 11,5 6,2 10,1 9,6 7,9 42 23 61 33 W 1011,5 50 0 0,0
25.02.2020 00:00:00 11,9 6,6 10,5 9,7 7,9 29 16 57 31 W 1011,9 60 0 0,0
24.02.2020 23:00:00 13,9 6,5 12,9 9,8 7,9 38 20 54 29 WSW 1012,3 60 0 0,0
24.02.2020 22:00:00 14,1 6,4 13,0 9,9 7,9 34 18 51 28 WSW 1013,0 60 0 0,0
24.02.2020 21:00:00 14,5 7,1 13,5 9,9 7,9 34 18 56 31 SW 1013,3 60 0 0,0
24.02.2020 20:00:00 14,2 6,3 12,1 10,0 7,9 39 21 56 30 SW 1012,6 60 0 0,0
24.02.2020 19:00:00 13,1 6,9 11,9 9,9 7,8 26 14 49 26 SSW 1013,1 60 0 0,0
24.02.2020 18:00:00 13,7 7,7 13,0 9,8 7,9 29 16 49 26 SSW 1013,8 59 40 0,0
24.02.2020 17:00:00 14,8 8,3 14,1 9,6 7,8 35 19 57 31 SW 1014,4 30 60 0,0
24.02.2020 16:00:00 16,6 8,8 18,2 9,4 7,9 35 19 56 31 SW 1015,3 36 60 0,0
24.02.2020 15:00:00 17,1 9,3 16,1 9,0 7,9 23 13 44 24 SSW 1016,6 43 40 0,0
24.02.2020 14:00:00 16,0 10,3 16,5 8,8 7,9 27 15 41 22 SSW 1017,9 24 48 0,0
24.02.2020 13:00:00 14,7 10,5 16,6 8,6 7,9 14 8 26 14 S 1019,7 22 53 0,0
24.02.2020 12:00:00 11,0 9,6 10,3 8,4 7,8 7 4 14 7 SSW 1021,6 20 26 0,0
24.02.2020 11:00:00 8,7 7,6 9,1 8,4 7,8 6 4 12 6 S 1022,9 26 0 0,0
24.02.2020 10:00:00 8,0 6,9 7,5 8,4 7,8 6 3 9 5 SSW 1023,7 19 2 0,0
24.02.2020 09:00:00 6,9 6,5 6,6 8,5 7,8 3 2 12 6 ESE 1024,9 17 0 0,0
24.02.2020 08:00:00 6,6 6,3 6,4 8,5 7,8 6 4 16 9 NE 1025,3 3,1 0 0,2
24.02.2020 07:00:00 6,6 6,3 6,4 8,6 7,8 11 6 17 9 NE 1025,9 2,7 0 0,4
24.02.2020 06:00:00 7,1 6,5 6,8 8,6 7,8 10 5 17 9 NE 1026,1 2,8 0 0,0
24.02.2020 05:00:00 7,5 6,8 7,2 8,6 7,8 16 9 27 15 N 1026,1 18 0 0,0
24.02.2020 04:00:00 8,4 7,8 8,0 8,6 7,8 18 10 26 14 N 1026,0 18 0 0,0
24.02.2020 03:00:00 10,4 9,3 9,7 8,6 7,8 7 4 33 18 NW 1025,8 29 0 0,8
24.02.2020 02:00:00 12,9 9,2 12,4 8,6 7,8 19 11 46 25 WSW 1025,3 60 0 0,0
24.02.2020 01:00:00 13,3 9,2 12,7 8,5 7,8 27 14 51 28 W 1024,9 57 0 0,0
24.02.2020 00:00:00 13,7 9,1 13,2 8,5 7,8 34 19 64 35 W 1024,0 60 0 0,0
23.02.2020 23:00:00 14,2 9,2 13,5 8,4 7,8 40 22 61 33 WSW 1023,7 60 0 0,0
23.02.2020 22:00:00 14,5 9,1 14,0 8,4 7,8 37 20 61 33 WSW 1023,6 60 0 0,0
23.02.2020 21:00:00 14,3 9,1 13,8 8,3 7,8 33 18 58 31 WSW 1022,7 60 0 0,0
23.02.2020 20:00:00 14,8 8,7 14,4 8,2 7,8 37 20 56 30 WSW 1022,6 60 0 0,0
23.02.2020 19:00:00 14,9 8,4 14,4 8,1 7,8 41 22 68 37 WSW 1022,6 60 0 0,0
23.02.2020 18:00:00 15,0 8,0 14,5 8,0 7,8 35 19 71 38 WSW 1021,8 60 0 0,0
23.02.2020 17:00:00 15,1 8,3 14,8 7,9 7,8 39 21 74 40 SW 1021,0 55 0 0,0
23.02.2020 16:00:00 15,5 8,5 15,2 7,8 7,8 34 19 74 40 WSW 1021,7 53 0 0,0
23.02.2020 15:00:00 15,5 8,5 14,8 7,6 7,8 35 19 63 34 WSW 1021,5 51 0 0,0
23.02.2020 14:00:00 14,6 9,0 13,4 7,5 7,8 25 13 45 25 SW 1022,0 56 0 0,0
23.02.2020 13:00:00 13,6 7,4 13,6 7,4 7,8 32 18 55 30 SSW 1022,3 46 6 0,0
23.02.2020 12:00:00 13,3 7,5 12,2 7,3 7,8 35 19 59 32 SSW 1023,4 52 0 0,0
23.02.2020 11:00:00 12,2 7,3 11,1 7,3 7,8 31 17 51 28 SSW 1023,8 46 0 0,0
23.02.2020 10:00:00 11,2 6,7 10,4 7,2 7,8 27 14 48 26 SSW 1024,3 47 0 0,0
23.02.2020 09:00:00 10,6 7,3 8,5 7,2 7,8 26 14 41 22 S 1025,2 58 0 0,0
23.02.2020 08:00:00 9,1 6,9 8,4 7,2 7,8 19 11 33 18 S 1026,1 53 0 0,0
23.02.2020 07:00:00 9,0 6,8 8,3 7,2 7,8 22 12 33 18 S 1026,0 60 0 0,0
23.02.2020 06:00:00 8,8 7,1 7,9 7,2 7,8 23 12 35 19 S 1026,8 60 0 0,0
23.02.2020 05:00:00 8,8 7,6 7,8 7,2 7,8 16 9 29 16 S 1027,8 29 0 0,2
23.02.2020 04:00:00 8,7 7,5 7,7 7,2 7,8 15 8 29 16 S 1028,4 17 0 0,6
23.02.2020 03:00:00 8,6 7,4 7,7 7,2 7,8 14 8 32 17 S 1028,7 19 0 0,4
23.02.2020 02:00:00 8,9 6,9 7,6 7,2 7,8 22 12 43 23 SSW 1028,8 15 0 0,4
23.02.2020 01:00:00 9,1 6,4 7,8 7,2 7,8 24 13 49 26 SSW 1029,2 29 0 0,2
23.02.2020 00:00:00 9,9 5,5 9,4 7,1 7,8 23 12 37 20 SSW 1029,4 51 0 0,0
22.02.2020 23:00:00 10,7 5,2 9,9 7,1 7,8 15 8 56 30 WSW 1030,1 56 0 0,0
22.02.2020 22:00:00 12,2 4,2 10,3 7,0 7,8 38 21 58 32 W 1029,6 38 0 0,0
22.02.2020 21:00:00 12,0 1,9 11,4 7,0 7,8 11 6 38 21 SSW 1028,8 60 0 0,0
22.02.2020 20:00:00 13,0 0,4 12,1 6,9 7,8 26 14 46 25 SSW 1028,1 60 0 0,0
22.02.2020 19:00:00 12,8 0,5 11,2 6,8 7,8 21 11 35 19 SSW 1027,9 60 0 0,0
22.02.2020 18:00:00 11,8 1,4 10,5 6,6 7,8 12 6 29 16 SSW 1027,1 60 0 0,0

tt = Température de l'air
td = dewpoint
tt 5cm = Température de l'air 5cm
tt -20cm = Température de l'air -20cm
tt -100cm = Température de l'air -100cm
ff = Vitesse du vent
fx = gusts
dd = Direction du vent
ppp = reduced air pressure
vv = visibility
sd = Ensoleillement
rr = Quantités de précipitations

stations d'obs. à proximité